owner,sensor,date,latitude,longitude,vertical_datum,wind_speed,wind_to_direction,wind_speed_of_gust,qcFlag 
TCOON,ioos:station:TCOON:068:1,2004-07-01T19:00:00Z,27.2970,-97.4049,0.0,9.0,130.0,99.0,'11111222,11111222,11144222' 
TCOON,ioos:station:TCOON:068:1,2004-07-01T20:00:00Z,27.2970,-97.4049,0.0,9.0,120.0,99.0,'11111222,11111222,11144222' 
TCOON,ioos:station:TCOON:068:1,2004-07-01T23:00:00Z,27.2970,-97.4049,0.0,8.0,120.0,99.0,'11111222,11111222,11144222' 
TCOON,ioos:station:TCOON:068:1,2004-07-02T07:00:00Z,27.2970,-97.4049,0.0,6.0,140.0,99.0,'11111222,11111222,11144222' 
TCOON,ioos:station:TCOON:068:1,2004-07-02T08:00:00Z,27.2970,-97.4049,0.0,7.0,150.0,99.0,'11111222,11111222,11144222' 
TCOON,ioos:station:TCOON:068:1,2004-07-02T11:00:00Z,27.2970,-97.4049,0.0,5.0,150.0,99.0,'11111222,11111222,11144222' 
TCOON,ioos:station:TCOON:068:1,2004-07-02T13:00:00Z,27.2970,-97.4049,0.0,4.0,130.0,99.0,'11111222,11111222,11144222' 
TCOON,ioos:station:TCOON:068:1,2004-07-02T14:00:00Z,27.2970,-97.4049,0.0,5.0,140.0,99.0,'11111222,11111222,11144222' 
TCOON,ioos:station:TCOON:068:1,2004-07-02T19:00:00Z,27.2970,-97.4049,0.0,9.0,120.0,99.0,'11111222,11111222,11144222' 
TCOON,ioos:station:TCOON:068:1,2004-07-02T20:00:00Z,27.2970,-97.4049,0.0,8.0,120.0,99.0,'11111222,11111222,11144222' 
TCOON,ioos:station:TCOON:068:1,2004-07-02T22:00:00Z,27.2970,-97.4049,0.0,8.0,120.0,99.0,'11111222,11111222,11144222' 
TCOON,ioos:station:TCOON:068:1,2004-07-02T23:00:00Z,27.2970,-97.4049,0.0,10.0,120.0,99.0,'11111222,11111222,11144222' 
TCOON,ioos:station:TCOON:068:1,2004-07-03T01:00:00Z,27.2970,-97.4049,0.0,9.0,130.0,99.0,'11111222,11111222,11144222' 
TCOON,ioos:station:TCOON:068:1,2004-07-03T02:00:00Z,27.2970,-97.4049,0.0,8.0,120.0,99.0,'11111222,11111222,11144222' 
TCOON,ioos:station:TCOON:068:1,2004-07-03T04:00:00Z,27.2970,-97.4049,0.0,7.0,130.0,99.0,'11111222,11111222,11144222' 
TCOON,ioos:station:TCOON:068:1,2004-07-03T05:00:00Z,27.2970,-97.4049,0.0,7.0,130.0,99.0,'11111222,11111222,11144222' 
TCOON,ioos:station:TCOON:068:1,2004-07-03T07:00:00Z,27.2970,-97.4049,0.0,7.0,140.0,99.0,'11111222,11111222,11144222' 
TCOON,ioos:station:TCOON:068:1,2004-07-03T08:00:00Z,27.2970,-97.4049,0.0,8.0,140.0,99.0,'11111222,11111222,11144222' 
TCOON,ioos:station:TCOON:068:1,2004-07-03T11:00:00Z,27.2970,-97.4049,0.0,7.0,150.0,99.0,'11111222,11111222,11144222' 
TCOON,ioos:station:TCOON:068:1,2004-07-03T14:00:00Z,27.2970,-97.4049,0.0,7.0,140.0,99.0,'11111222,11111222,11144222' 
TCOON,ioos:station:TCOON:068:1,2004-07-03T17:00:00Z,27.2970,-97.4049,0.0,8.0,130.0,99.0,'11111222,11111222,11144222' 
TCOON,ioos:station:TCOON:068:1,2004-07-03T19:00:00Z,27.2970,-97.4049,0.0,10.0,130.0,99.0,'11111222,11111222,11144222' 
TCOON,ioos:station:TCOON:068:1,2004-07-03T20:00:00Z,27.2970,-97.4049,0.0,9.0,130.0,99.0,'11111222,11111222,11144222' 
TCOON,ioos:station:TCOON:068:1,2004-07-03T23:00:00Z,27.2970,-97.4049,0.0,8.0,120.0,99.0,'11111222,11111222,11144222' 
TCOON,ioos:station:TCOON:068:1,2004-07-04T01:00:00Z,27.2970,-97.4049,0.0,8.0,120.0,99.0,'11111222,11111222,11144222' 
TCOON,ioos:station:TCOON:068:1,2004-07-04T02:00:00Z,27.2970,-97.4049,0.0,7.0,130.0,99.0,'11111222,11111222,11144222' 
TCOON,ioos:station:TCOON:068:1,2004-07-04T04:00:00Z,27.2970,-97.4049,0.0,7.0,130.0,99.0,'11111222,11111222,11144222' 
TCOON,ioos:station:TCOON:068:1,2004-07-04T05:00:00Z,27.2970,-97.4049,0.0,6.0,130.0,99.0,'11111222,11111222,11144222' 
TCOON,ioos:station:TCOON:068:1,2004-07-04T07:00:00Z,27.2970,-97.4049,0.0,6.0,140.0,99.0,'11111222,11111222,11144222' 
TCOON,ioos:station:TCOON:068:1,2004-07-04T08:00:00Z,27.2970,-97.4049,0.0,7.0,150.0,99.0,'11111222,11111222,11144222' 
TCOON,ioos:station:TCOON:068:1,2004-07-04T11:00:00Z,27.2970,-97.4049,0.0,5.0,140.0,99.0,'11111222,11111222,11144222' 
TCOON,ioos:station:TCOON:068:1,2004-07-04T13:00:00Z,27.2970,-97.4049,0.0,5.0,140.0,99.0,'11111222,11111222,11144222' 
TCOON,ioos:station:TCOON:068:1,2004-07-04T14:00:00Z,27.2970,-97.4049,0.0,6.0,150.0,99.0,'11111222,11111222,11144222' 
TCOON,ioos:station:TCOON:068:1,2004-07-04T16:00:00Z,27.2970,-97.4049,0.0,7.0,130.0,99.0,'11111222,11111222,11144222' 
TCOON,ioos:station:TCOON:068:1,2004-07-04T17:00:00Z,27.2970,-97.4049,0.0,8.0,120.0,99.0,'11111222,11111222,11144222' 
TCOON,ioos:station:TCOON:068:1,2004-07-04T20:00:00Z,27.2970,-97.4049,0.0,7.0,110.0,99.0,'11111222,11111222,11144222' 
TCOON,ioos:station:TCOON:068:1,2004-07-04T23:00:00Z,27.2970,-97.4049,0.0,9.0,110.0,99.0,'11111222,11111222,11144222' 
TCOON,ioos:station:TCOON:068:1,2004-07-05T02:00:00Z,27.2970,-97.4049,0.0,6.0,110.0,99.0,'11111222,11111222,11144222' 
TCOON,ioos:station:TCOON:068:1,2004-07-05T04:00:00Z,27.2970,-97.4049,0.0,4.0,130.0,99.0,'11111222,11111222,11144222' 
TCOON,ioos:station:TCOON:068:1,2004-07-05T05:00:00Z,27.2970,-97.4049,0.0,5.0,120.0,99.0,'11111222,11111222,11144222' 
TCOON,ioos:station:TCOON:068:1,2004-07-05T10:00:00Z,27.2970,-97.4049,0.0,6.0,130.0,99.0,'11111222,11111222,11144222' 
TCOON,ioos:station:TCOON:068:1,2004-07-05T11:00:00Z,27.2970,-97.4049,0.0,4.0,130.0,99.0,'11111222,11111222,11144222' 
TCOON,ioos:station:TCOON:068:1,2004-07-05T13:00:00Z,27.2970,-97.4049,0.0,5.0,130.0,99.0,'11111222,11111222,11144222' 
TCOON,ioos:station:TCOON:068:1,2004-07-05T14:00:00Z,27.2970,-97.4049,0.0,5.0,140.0,99.0,'11111222,11111222,11144222' 
TCOON,ioos:station:TCOON:068:1,2004-07-05T23:00:00Z,27.2970,-97.4049,0.0,9.0,120.0,99.0,'11111222,11111222,11144222' 
TCOON,ioos:station:TCOON:068:1,2004-07-06T01:00:00Z,27.2970,-97.4049,0.0,9.0,110.0,99.0,'11111222,11111222,11144222' 
TCOON,ioos:station:TCOON:068:1,2004-07-06T02:00:00Z,27.2970,-97.4049,0.0,8.0,120.0,99.0,'11111222,11111222,11144222' 
TCOON,ioos:station:TCOON:068:1,2004-07-06T05:00:00Z,27.2970,-97.4049,0.0,6.0,120.0,99.0,'11111222,11111222,11144222' 
TCOON,ioos:station:TCOON:068:1,2004-07-06T07:00:00Z,27.2970,-97.4049,0.0,6.0,130.0,99.0,'11111222,11111222,11144222' 
TCOON,ioos:station:TCOON:068:1,2004-07-06T08:00:00Z,27.2970,-97.4049,0.0,6.0,140.0,99.0,'11111222,11111222,11144222' 
TCOON,ioos:station:TCOON:068:1,2004-07-06T10:00:00Z,27.2970,-97.4049,0.0,6.0,140.0,99.0,'11111222,11111222,11144222' 
TCOON,ioos:station:TCOON:068:1,2004-07-06T11:00:00Z,27.2970,-97.4049,0.0,6.0,140.0,99.0,'11111222,11111222,11144222' 
TCOON,ioos:station:TCOON:068:1,2004-07-06T13:00:00Z,27.2970,-97.4049,0.0,6.0,140.0,99.0,'11111222,11111222,11144222' 
TCOON,ioos:station:TCOON:068:1,2004-07-06T14:00:00Z,27.2970,-97.4049,0.0,5.0,140.0,99.0,'11111222,11111222,11144222' 
TCOON,ioos:station:TCOON:068:1,2004-07-06T16:00:00Z,27.2970,-97.4049,0.0,7.0,130.0,99.0,'11111222,11111222,11144222' 
TCOON,ioos:station:TCOON:068:1,2004-07-06T17:00:00Z,27.2970,-97.4049,0.0,7.0,120.0,99.0,'11111222,11111222,11144222' 
TCOON,ioos:station:TCOON:068:1,2004-07-06T19:00:00Z,27.2970,-97.4049,0.0,8.0,110.0,99.0,'11111222,11111222,11144222' 
TCOON,ioos:station:TCOON:068:1,2004-07-06T20:00:00Z,27.2970,-97.4049,0.0,7.0,110.0,99.0,'11111222,11111222,11144222' 
TCOON,ioos:station:TCOON:068:1,2004-07-06T23:00:00Z,27.2970,-97.4049,0.0,9.0,120.0,99.0,'11111222,11111222,11144222' 
TCOON,ioos:station:TCOON:068:1,2004-07-07T01:00:00Z,27.2970,-97.4049,0.0,9.0,110.0,99.0,'11111222,11111222,11144222' 
TCOON,ioos:station:TCOON:068:1,2004-07-07T02:00:00Z,27.2970,-97.4049,0.0,6.0,110.0,99.0,'11111222,11111222,11144222' 
TCOON,ioos:station:TCOON:068:1,2004-07-07T05:00:00Z,27.2970,-97.4049,0.0,6.0,130.0,99.0,'11111222,11111222,11144222' 
TCOON,ioos:station:TCOON:068:1,2004-07-07T08:00:00Z,27.2970,-97.4049,0.0,8.0,140.0,99.0,'11111222,11111222,11144222' 
TCOON,ioos:station:TCOON:068:1,2004-07-07T11:00:00Z,27.2970,-97.4049,0.0,4.0,130.0,99.0,'11111222,11111222,11144222' 
TCOON,ioos:station:TCOON:068:1,2004-07-07T14:00:00Z,27.2970,-97.4049,0.0,8.0,120.0,99.0,'11111222,11111222,11144222' 
TCOON,ioos:station:TCOON:068:1,2004-07-07T17:00:00Z,27.2970,-97.4049,0.0,7.0,130.0,99.0,'11111222,11111222,11144222' 
TCOON,ioos:station:TCOON:068:1,2004-07-07T20:00:00Z,27.2970,-97.4049,0.0,8.0,110.0,99.0,'11111222,11111222,11144222' 
TCOON,ioos:station:TCOON:068:1,2004-07-07T23:00:00Z,27.2970,-97.4049,0.0,8.0,120.0,99.0,'11111222,11111222,11144222' 
TCOON,ioos:station:TCOON:068:1,2004-07-08T02:00:00Z,27.2970,-97.4049,0.0,6.0,120.0,99.0,'11111222,11111222,11144222' 
TCOON,ioos:station:TCOON:068:1,2004-07-08T05:00:00Z,27.2970,-97.4049,0.0,7.0,130.0,99.0,'11111222,11111222,11144222' 
TCOON,ioos:station:TCOON:068:1,2004-07-08T07:00:00Z,27.2970,-97.4049,0.0,7.0,140.0,99.0,'11111222,11111222,11144222' 
TCOON,ioos:station:TCOON:068:1,2004-07-08T08:00:00Z,27.2970,-97.4049,0.0,5.0,130.0,99.0,'11111222,11111222,11144222' 
TCOON,ioos:station:TCOON:068:1,2004-07-08T11:00:00Z,27.2970,-97.4049,0.0,5.0,120.0,99.0,'11111222,11111222,11144222' 
TCOON,ioos:station:TCOON:068:1,2004-07-08T13:00:00Z,27.2970,-97.4049,0.0,5.0,120.0,99.0,'11111222,11111222,11144222' 
TCOON,ioos:station:TCOON:068:1,2004-07-08T14:00:00Z,27.2970,-97.4049,0.0,6.0,130.0,99.0,'11111222,11111222,11144222' 
TCOON,ioos:station:TCOON:068:1,2004-07-08T16:00:00Z,27.2970,-97.4049,0.0,6.0,130.0,99.0,'11111222,11111222,11144222' 
TCOON,ioos:station:TCOON:068:1,2004-07-08T17:00:00Z,27.2970,-97.4049,0.0,9.0,130.0,99.0,'11111222,11111222,11144222' 
TCOON,ioos:station:TCOON:068:1,2004-07-08T20:00:00Z,27.2970,-97.4049,0.0,10.0,120.0,99.0,'11111222,11111222,11144222' 
TCOON,ioos:station:TCOON:068:1,2004-07-08T22:00:00Z,27.2970,-97.4049,0.0,10.0,120.0,99.0,'11111222,11111222,11144222' 
TCOON,ioos:station:TCOON:068:1,2004-07-08T23:00:00Z,27.2970,-97.4049,0.0,10.0,110.0,99.0,'11111222,11111222,11144222' 
TCOON,ioos:station:TCOON:068:1,2004-07-09T02:00:00Z,27.2970,-97.4049,0.0,8.0,120.0,99.0,'11111222,11111222,11144222' 
TCOON,ioos:station:TCOON:068:1,2004-07-09T04:00:00Z,27.2970,-97.4049,0.0,6.0,120.0,99.0,'11111222,11111222,11144222' 
TCOON,ioos:station:TCOON:068:1,2004-07-09T05:00:00Z,27.2970,-97.4049,0.0,5.0,120.0,99.0,'11111222,11111222,11144222' 
TCOON,ioos:station:TCOON:068:1,2004-07-09T10:00:00Z,27.2970,-97.4049,0.0,4.0,130.0,99.0,'11111222,11111222,11144222' 
TCOON,ioos:station:TCOON:068:1,2004-07-09T11:00:00Z,27.2970,-97.4049,0.0,5.0,130.0,99.0,'11111222,11111222,11144222' 
TCOON,ioos:station:TCOON:068:1,2004-07-09T17:00:00Z,27.2970,-97.4049,0.0,7.0,110.0,99.0,'11111222,11111222,11144222' 
TCOON,ioos:station:TCOON:068:1,2004-07-09T20:00:00Z,27.2970,-97.4049,0.0,0.0,0.0,99.0,'11111222,11111222,11144222' 
TCOON,ioos:station:TCOON:068:1,2004-07-09T23:00:00Z,27.2970,-97.4049,0.0,9.0,100.0,99.0,'11111222,11111222,11144222' 
TCOON,ioos:station:TCOON:068:1,2004-07-10T01:00:00Z,27.2970,-97.4049,0.0,8.0,100.0,99.0,'11111222,11111222,11144222' 
TCOON,ioos:station:TCOON:068:1,2004-07-10T02:00:00Z,27.2970,-97.4049,0.0,7.0,90.0,99.0,'11111222,11111222,11144222' 
TCOON,ioos:station:TCOON:068:1,2004-07-10T06:00:00Z,27.2970,-97.4049,0.0,6.0,110.0,99.0,'11111222,11111222,11144222' 
TCOON,ioos:station:TCOON:068:1,2004-07-10T07:00:00Z,27.2970,-97.4049,0.0,5.0,120.0,99.0,'11111222,11111222,11144222' 
TCOON,ioos:station:TCOON:068:1,2004-07-10T08:00:00Z,27.2970,-97.4049,0.0,3.0,110.0,99.0,'11111222,11111222,11144222' 
TCOON,ioos:station:TCOON:068:1,2004-07-10T10:00:00Z,27.2970,-97.4049,0.0,2.0,110.0,99.0,'11111222,11111222,11144222' 
TCOON,ioos:station:TCOON:068:1,2004-07-10T11:00:00Z,27.2970,-97.4049,0.0,3.0,110.0,99.0,'11111222,11111222,11144222' 
TCOON,ioos:station:TCOON:068:1,2004-07-10T13:00:00Z,27.2970,-97.4049,0.0,4.0,110.0,99.0,'11111222,11111222,11144222' 
TCOON,ioos:station:TCOON:068:1,2004-07-10T14:00:00Z,27.2970,-97.4049,0.0,5.0,120.0,99.0,'11111222,11111222,11144222' 
TCOON,ioos:station:TCOON:068:1,2004-07-10T16:00:00Z,27.2970,-97.4049,0.0,6.0,100.0,99.0,'11111222,11111222,11144222' 
TCOON,ioos:station:TCOON:068:1,2004-07-10T17:00:00Z,27.2970,-97.4049,0.0,6.0,110.0,99.0,'11111222,11111222,11144222' 
TCOON,ioos:station:TCOON:068:1,2004-07-10T18:00:00Z,27.2970,-97.4049,0.0,7.0,110.0,99.0,'11111222,11111222,11144222' 
TCOON,ioos:station:TCOON:068:1,2004-07-10T19:00:00Z,27.2970,-97.4049,0.0,6.0,100.0,99.0,'11111222,11111222,11144222' 
TCOON,ioos:station:TCOON:068:1,2004-07-10T22:00:00Z,27.2970,-97.4049,0.0,6.0,110.0,99.0,'11111222,11111222,11144222' 
TCOON,ioos:station:TCOON:068:1,2004-07-10T23:00:00Z,27.2970,-97.4049,0.0,5.0,120.0,99.0,'11111222,11111222,11144222' 
TCOON,ioos:station:TCOON:068:1,2004-07-11T01:00:00Z,27.2970,-97.4049,0.0,8.0,110.0,99.0,'11111222,11111222,11144222' 
TCOON,ioos:station:TCOON:068:1,2004-07-11T02:00:00Z,27.2970,-97.4049,0.0,6.0,110.0,99.0,'11111222,11111222,11144222' 
TCOON,ioos:station:TCOON:068:1,2004-07-11T05:00:00Z,27.2970,-97.4049,0.0,4.0,130.0,99.0,'11111222,11111222,11144222' 
TCOON,ioos:station:TCOON:068:1,2004-07-11T08:00:00Z,27.2970,-97.4049,0.0,2.0,130.0,99.0,'11111222,11111222,11144222' 
TCOON,ioos:station:TCOON:068:1,2004-07-11T10:00:00Z,27.2970,-97.4049,0.0,1.0,110.0,99.0,'11111222,11111222,11144222' 
TCOON,ioos:station:TCOON:068:1,2004-07-11T11:00:00Z,27.2970,-97.4049,0.0,2.0,80.0,99.0,'11111222,11111222,11144222' 
TCOON,ioos:station:TCOON:068:1,2004-07-11T13:00:00Z,27.2970,-97.4049,0.0,1.0,90.0,99.0,'11111222,11111222,11144222' 
TCOON,ioos:station:TCOON:068:1,2004-07-11T14:00:00Z,27.2970,-97.4049,0.0,0.0,0.0,99.0,'11111222,11111222,11144222' 
TCOON,ioos:station:TCOON:068:1,2004-07-11T17:00:00Z,27.2970,-97.4049,0.0,8.0,60.0,99.0,'11111222,11111222,11144222' 
TCOON,ioos:station:TCOON:068:1,2004-07-11T20:00:00Z,27.2970,-97.4049,0.0,6.0,120.0,99.0,'11111222,11111222,11144222' 
TCOON,ioos:station:TCOON:068:1,2004-07-11T22:00:00Z,27.2970,-97.4049,0.0,6.0,110.0,99.0,'11111222,11111222,11144222' 
TCOON,ioos:station:TCOON:068:1,2004-07-11T23:00:00Z,27.2970,-97.4049,0.0,6.0,110.0,99.0,'11111222,11111222,11144222' 
TCOON,ioos:station:TCOON:068:1,2004-07-12T01:00:00Z,27.2970,-97.4049,0.0,5.0,130.0,99.0,'11111222,11111222,11144222' 
TCOON,ioos:station:TCOON:068:1,2004-07-12T02:00:00Z,27.2970,-97.4049,0.0,4.0,130.0,99.0,'11111222,11111222,11144222' 
TCOON,ioos:station:TCOON:068:1,2004-07-12T05:00:00Z,27.2970,-97.4049,0.0,2.0,120.0,99.0,'11111222,11111222,11144222' 
TCOON,ioos:station:TCOON:068:1,2004-07-12T08:00:00Z,27.2970,-97.4049,0.0,2.0,80.0,99.0,'11111222,11111222,11144222' 
TCOON,ioos:station:TCOON:068:1,2004-07-12T11:00:00Z,27.2970,-97.4049,0.0,4.0,70.0,99.0,'11111222,11111222,11144222' 
TCOON,ioos:station:TCOON:068:1,2004-07-12T14:00:00Z,27.2970,-97.4049,0.0,5.0,90.0,99.0,'11111222,11111222,11144222' 
TCOON,ioos:station:TCOON:068:1,2004-07-12T16:00:00Z,27.2970,-97.4049,0.0,5.0,100.0,99.0,'11111222,11111222,11144222' 
TCOON,ioos:station:TCOON:068:1,2004-07-12T17:00:00Z,27.2970,-97.4049,0.0,5.0,100.0,99.0,'11111222,11111222,11144222' 
TCOON,ioos:station:TCOON:068:1,2004-07-12T19:00:00Z,27.2970,-97.4049,0.0,5.0,110.0,99.0,'11111222,11111222,11144222' 
TCOON,ioos:station:TCOON:068:1,2004-07-12T20:00:00Z,27.2970,-97.4049,0.0,5.0,110.0,99.0,'11111222,11111222,11144222' 
TCOON,ioos:station:TCOON:068:1,2004-07-12T22:00:00Z,27.2970,-97.4049,0.0,6.0,100.0,99.0,'11111222,11111222,11144222' 
TCOON,ioos:station:TCOON:068:1,2004-07-12T23:00:00Z,27.2970,-97.4049,0.0,6.0,100.0,99.0,'11111222,11111222,11144222' 
TCOON,ioos:station:TCOON:068:1,2004-07-13T02:00:00Z,27.2970,-97.4049,0.0,5.0,110.0,99.0,'11111222,11111222,11144222' 
TCOON,ioos:station:TCOON:068:1,2004-07-13T04:00:00Z,27.2970,-97.4049,0.0,5.0,110.0,99.0,'11111222,11111222,11144222' 
TCOON,ioos:station:TCOON:068:1,2004-07-13T05:00:00Z,27.2970,-97.4049,0.0,5.0,120.0,99.0,'11111222,11111222,11144222' 
TCOON,ioos:station:TCOON:068:1,2004-07-13T08:00:00Z,27.2970,-97.4049,0.0,5.0,130.0,99.0,'11111222,11111222,11144222' 
TCOON,ioos:station:TCOON:068:1,2004-07-13T10:00:00Z,27.2970,-97.4049,0.0,4.0,140.0,99.0,'11111222,11111222,11144222' 
TCOON,ioos:station:TCOON:068:1,2004-07-13T11:00:00Z,27.2970,-97.4049,0.0,3.0,130.0,99.0,'11111222,11111222,11144222' 
TCOON,ioos:station:TCOON:068:1,2004-07-13T13:00:00Z,27.2970,-97.4049,0.0,2.0,130.0,99.0,'11111222,11111222,11144222' 
TCOON,ioos:station:TCOON:068:1,2004-07-13T14:00:00Z,27.2970,-97.4049,0.0,3.0,130.0,99.0,'11111222,11111222,11144222' 
TCOON,ioos:station:TCOON:068:1,2004-07-13T17:00:00Z,27.2970,-97.4049,0.0,3.0,110.0,99.0,'11111222,11111222,11144222' 
TCOON,ioos:station:TCOON:068:1,2004-07-13T22:00:00Z,27.2970,-97.4049,0.0,0.0,0.0,99.0,'11111222,11111222,11144222' 
TCOON,ioos:station:TCOON:068:1,2004-07-13T23:00:00Z,27.2970,-97.4049,0.0,5.0,100.0,99.0,'11111222,11111222,11144222' 
TCOON,ioos:station:TCOON:068:1,2004-07-14T01:00:00Z,27.2970,-97.4049,0.0,4.0,100.0,99.0,'11111222,11111222,11144222' 
TCOON,ioos:station:TCOON:068:1,2004-07-14T02:00:00Z,27.2970,-97.4049,0.0,5.0,110.0,99.0,'11111222,11111222,11144222' 
TCOON,ioos:station:TCOON:068:1,2004-07-14T10:00:00Z,27.2970,-97.4049,0.0,4.0,190.0,99.0,'11111222,11111222,11144222' 
TCOON,ioos:station:TCOON:068:1,2004-07-14T11:00:00Z,27.2970,-97.4049,0.0,3.0,200.0,99.0,'11111222,11111222,11144222' 
TCOON,ioos:station:TCOON:068:1,2004-07-14T13:00:00Z,27.2970,-97.4049,0.0,2.0,200.0,99.0,'11111222,11111222,11144222' 
TCOON,ioos:station:TCOON:068:1,2004-07-14T14:00:00Z,27.2970,-97.4049,0.0,1.0,200.0,99.0,'11111222,11111222,11144222' 
TCOON,ioos:station:TCOON:068:1,2004-07-14T16:00:00Z,27.2970,-97.4049,0.0,0.0,0.0,99.0,'11111222,11111222,11144222' 
TCOON,ioos:station:TCOON:068:1,2004-07-14T17:00:00Z,27.2970,-97.4049,0.0,0.0,0.0,99.0,'11111222,11111222,11144222' 
TCOON,ioos:station:TCOON:068:1,2004-07-14T20:00:00Z,27.2970,-97.4049,0.0,3.0,80.0,99.0,'11111222,11111222,11144222' 
TCOON,ioos:station:TCOON:068:1,2004-07-14T22:00:00Z,27.2970,-97.4049,0.0,5.0,80.0,99.0,'11111222,11111222,11144222' 
TCOON,ioos:station:TCOON:068:1,2004-07-14T23:00:00Z,27.2970,-97.4049,0.0,4.0,100.0,99.0,'11111222,11111222,11144222' 
TCOON,ioos:station:TCOON:068:1,2004-07-15T01:00:00Z,27.2970,-97.4049,0.0,4.0,100.0,99.0,'11111222,11111222,11144222' 
TCOON,ioos:station:TCOON:068:1,2004-07-15T02:00:00Z,27.2970,-97.4049,0.0,4.0,100.0,99.0,'11111222,11111222,11144222' 
TCOON,ioos:station:TCOON:068:1,2004-07-15T04:00:00Z,27.2970,-97.4049,0.0,4.0,130.0,99.0,'11111222,11111222,11144222' 
TCOON,ioos:station:TCOON:068:1,2004-07-15T05:00:00Z,27.2970,-97.4049,0.0,5.0,140.0,99.0,'11111222,11111222,11144222' 
TCOON,ioos:station:TCOON:068:1,2004-07-15T14:00:00Z,27.2970,-97.4049,0.0,2.0,180.0,99.0,'11111222,11111222,11144222' 
TCOON,ioos:station:TCOON:068:1,2004-07-15T19:00:00Z,27.2970,-97.4049,0.0,3.0,100.0,99.0,'11111222,11111222,11144222' 
TCOON,ioos:station:TCOON:068:1,2004-07-15T20:00:00Z,27.2970,-97.4049,0.0,4.0,110.0,99.0,'11111222,11111222,11144222' 
TCOON,ioos:station:TCOON:068:1,2004-07-15T22:00:00Z,27.2970,-97.4049,0.0,4.0,90.0,99.0,'11111222,11111222,11144222' 
TCOON,ioos:station:TCOON:068:1,2004-07-15T23:00:00Z,27.2970,-97.4049,0.0,6.0,100.0,99.0,'11111222,11111222,11144222' 
TCOON,ioos:station:TCOON:068:1,2004-07-16T01:00:00Z,27.2970,-97.4049,0.0,7.0,140.0,99.0,'11111222,11111222,11144222' 
TCOON,ioos:station:TCOON:068:1,2004-07-16T02:00:00Z,27.2970,-97.4049,0.0,5.0,110.0,99.0,'11111222,11111222,11144222' 
TCOON,ioos:station:TCOON:068:1,2004-07-16T03:00:00Z,27.2970,-97.4049,0.0,5.0,120.0,99.0,'11111222,11111222,11144222' 
TCOON,ioos:station:TCOON:068:1,2004-07-16T05:00:00Z,27.2970,-97.4049,0.0,5.0,130.0,99.0,'11111222,11111222,11144222' 
TCOON,ioos:station:TCOON:068:1,2004-07-16T07:00:00Z,27.2970,-97.4049,0.0,5.0,140.0,99.0,'11111222,11111222,11144222' 
TCOON,ioos:station:TCOON:068:1,2004-07-16T08:00:00Z,27.2970,-97.4049,0.0,5.0,140.0,99.0,'11111222,11111222,11144222' 
TCOON,ioos:station:TCOON:068:1,2004-07-16T09:00:00Z,27.2970,-97.4049,0.0,5.0,140.0,99.0,'11111222,11111222,11144222' 
TCOON,ioos:station:TCOON:068:1,2004-07-16T11:00:00Z,27.2970,-97.4049,0.0,4.0,140.0,99.0,'11111222,11111222,11144222' 
TCOON,ioos:station:TCOON:068:1,2004-07-16T13:00:00Z,27.2970,-97.4049,0.0,2.0,180.0,99.0,'11111222,11111222,11144222' 
TCOON,ioos:station:TCOON:068:1,2004-07-16T14:00:00Z,27.2970,-97.4049,0.0,2.0,140.0,99.0,'11111222,11111222,11144222' 
TCOON,ioos:station:TCOON:068:1,2004-07-16T16:00:00Z,27.2970,-97.4049,0.0,4.0,150.0,99.0,'11111222,11111222,11144222' 
TCOON,ioos:station:TCOON:068:1,2004-07-16T20:00:00Z,27.2970,-97.4049,0.0,7.0,100.0,99.0,'11111222,11111222,11144222' 
TCOON,ioos:station:TCOON:068:1,2004-07-16T23:00:00Z,27.2970,-97.4049,0.0,7.0,110.0,99.0,'11111222,11111222,11144222' 
TCOON,ioos:station:TCOON:068:1,2004-07-17T00:00:00Z,27.2970,-97.4049,0.0,6.0,120.0,99.0,'11111222,11111222,11144222' 
TCOON,ioos:station:TCOON:068:1,2004-07-17T01:00:00Z,27.2970,-97.4049,0.0,5.0,120.0,99.0,'11111222,11111222,11144222' 
TCOON,ioos:station:TCOON:068:1,2004-07-17T02:00:00Z,27.2970,-97.4049,0.0,6.0,110.0,99.0,'11111222,11111222,11144222' 
TCOON,ioos:station:TCOON:068:1,2004-07-17T04:00:00Z,27.2970,-97.4049,0.0,7.0,120.0,99.0,'11111222,11111222,11144222' 
TCOON,ioos:station:TCOON:068:1,2004-07-17T05:00:00Z,27.2970,-97.4049,0.0,6.0,130.0,99.0,'11111222,11111222,11144222' 
TCOON,ioos:station:TCOON:068:1,2004-07-17T06:00:00Z,27.2970,-97.4049,0.0,6.0,140.0,99.0,'11111222,11111222,11144222' 
TCOON,ioos:station:TCOON:068:1,2004-07-17T07:00:00Z,27.2970,-97.4049,0.0,6.0,140.0,99.0,'11111222,11111222,11144222' 
TCOON,ioos:station:TCOON:068:1,2004-07-17T08:00:00Z,27.2970,-97.4049,0.0,6.0,150.0,99.0,'11111222,11111222,11144222' 
TCOON,ioos:station:TCOON:068:1,2004-07-17T09:00:00Z,27.2970,-97.4049,0.0,7.0,150.0,99.0,'11111222,11111222,11144222' 
TCOON,ioos:station:TCOON:068:1,2004-07-17T10:00:00Z,27.2970,-97.4049,0.0,5.0,150.0,99.0,'11111222,11111222,11144222' 
TCOON,ioos:station:TCOON:068:1,2004-07-17T11:00:00Z,27.2970,-97.4049,0.0,5.0,150.0,99.0,'11111222,11111222,11144222' 
TCOON,ioos:station:TCOON:068:1,2004-07-17T12:00:00Z,27.2970,-97.4049,0.0,5.0,150.0,99.0,'11111222,11111222,11144222' 
TCOON,ioos:station:TCOON:068:1,2004-07-17T13:00:00Z,27.2970,-97.4049,0.0,4.0,140.0,99.0,'11111222,11111222,11144222' 
TCOON,ioos:station:TCOON:068:1,2004-07-17T14:00:00Z,27.2970,-97.4049,0.0,5.0,150.0,99.0,'11111222,11111222,11144222' 
TCOON,ioos:station:TCOON:068:1,2004-07-17T17:00:00Z,27.2970,-97.4049,0.0,4.0,130.0,99.0,'11111222,11111222,11144222' 
TCOON,ioos:station:TCOON:068:1,2004-07-17T20:00:00Z,27.2970,-97.4049,0.0,8.0,130.0,99.0,'11111222,11111222,11144222' 
TCOON,ioos:station:TCOON:068:1,2004-07-17T21:00:00Z,27.2970,-97.4049,0.0,8.0,120.0,99.0,'11111222,11111222,11144222' 
TCOON,ioos:station:TCOON:068:1,2004-07-17T23:00:00Z,27.2970,-97.4049,0.0,9.0,120.0,99.0,'11111222,11111222,11144222' 
TCOON,ioos:station:TCOON:068:1,2004-07-18T02:00:00Z,27.2970,-97.4049,0.0,8.0,120.0,99.0,'11111222,11111222,11144222' 
TCOON,ioos:station:TCOON:068:1,2004-07-18T03:00:00Z,27.2970,-97.4049,0.0,7.0,140.0,99.0,'11111222,11111222,11144222' 
TCOON,ioos:station:TCOON:068:1,2004-07-18T05:00:00Z,27.2970,-97.4049,0.0,8.0,140.0,99.0,'11111222,11111222,11144222' 
TCOON,ioos:station:TCOON:068:1,2004-07-18T08:00:00Z,27.2970,-97.4049,0.0,7.0,160.0,99.0,'11111222,11111222,11144222' 
TCOON,ioos:station:TCOON:068:1,2004-07-18T10:00:00Z,27.2970,-97.4049,0.0,9.0,170.0,99.0,'11111222,11111222,11144222' 
TCOON,ioos:station:TCOON:068:1,2004-07-18T11:00:00Z,27.2970,-97.4049,0.0,9.0,170.0,99.0,'11111222,11111222,11144222' 
TCOON,ioos:station:TCOON:068:1,2004-07-18T14:00:00Z,27.2970,-97.4049,0.0,4.0,190.0,99.0,'11111222,11111222,11144222' 
TCOON,ioos:station:TCOON:068:1,2004-07-18T15:00:00Z,27.2970,-97.4049,0.0,6.0,190.0,99.0,'11111222,11111222,11144222' 
TCOON,ioos:station:TCOON:068:1,2004-07-18T17:00:00Z,27.2970,-97.4049,0.0,3.0,210.0,99.0,'11111222,11111222,11144222' 
TCOON,ioos:station:TCOON:068:1,2004-07-18T18:00:00Z,27.2970,-97.4049,0.0,1.0,140.0,99.0,'11111222,11111222,11144222' 
TCOON,ioos:station:TCOON:068:1,2004-07-18T20:00:00Z,27.2970,-97.4049,0.0,2.0,100.0,99.0,'11111222,11111222,11144222' 
TCOON,ioos:station:TCOON:068:1,2004-07-18T21:00:00Z,27.2970,-97.4049,0.0,5.0,110.0,99.0,'11111222,11111222,11144222' 
TCOON,ioos:station:TCOON:068:1,2004-07-18T22:00:00Z,27.2970,-97.4049,0.0,7.0,120.0,99.0,'11111222,11111222,11144222' 